Flag for U.S.A. Weather past 2 weeks in Metlakatla, Alaska, U.S.A.

Now
63 °F

Partly sunny.


Feels Like: 63 °F
Forecast: 52 / 63 °F
Wind: 12 mph from South

Location: Metlakatla - Metlakatla Seaplane Base

Current Time: Aug 27, 2015 at 11:54:22 AM

Latest Report: Aug 27, 2015 at 11:36 AM


Visibility: 10 mi

Pressure: 29.97 "Hg

Humidity: 73%

Dew point: 54 °F

Location of MetlakatlaLocation

Historic Weather in Metlakatla — Graph

°F

Metlakatla temperature yesterday

Maximum temperature yesterday: 73 °F (at 4:56 PM)
Minimum temperature yesterday: 57 °F (at 9:56 PM)
Average temperature yesterday: 66 °F

Past Weeks' High & Low Weather Summary

 TemperatureHumidityPressure
High73 °F (Aug 13, 4:36 PM)100% (Aug 13, 6:36 AM)30.34 "Hg (Aug 13, 6:36 AM)
Low54 °F (Aug 13, 5:36 AM)44% (Aug 15, 4:36 PM)29.89 "Hg (Aug 22, 8:36 AM)
Average61 °F77%30.10 "Hg
* Reported Aug 12 10:16 AM — Aug 27 10:56 AM, Metlakatla, Weather by CustomWeather, © 2015

Note: Actual official high and low records may vary slightly from our data, if they occured in-between our weather recording intervals... More about our weather records

Advertising

Metlakatla weather history for previous 24 hours

 ConditionsComfort  
Time TempWeatherWind HumidityBarometerVisibility
10:56 AM
Thu, Aug 27
63 °FPartly sunny.3 mph77%29.97 "Hg10 mi
10:36 AM61 °FSunny.No wind88%29.97 "Hg10 mi
9:56 AM61 °FSunny.5 mph83%29.97 "Hg10 mi
9:36 AM61 °FSunny.3 mph77%29.97 "Hg10 mi
11:36 PM
Wed, Aug 26
57 °FClear.3 mph72%30.02 "Hg10 mi
11:16 PM57 °FClear.3 mph77%30.02 "Hg10 mi
10:56 PM57 °FClear.3 mph72%30.02 "Hg10 mi
10:36 PM57 °FClear.5 mph72%30.02 "Hg10 mi
10:16 PM57 °FClear.3 mph72%30.03 "Hg10 mi
9:56 PM57 °FClear.5 mph72%30.03 "Hg10 mi
9:36 PM59 °FClear.5 mph68%30.04 "Hg10 mi
9:16 PM61 °FClear.6 mph63%30.03 "Hg10 mi
8:56 PM63 °FClear.6 mph59%30.04 "Hg10 mi
8:36 PM63 °FSunny.6 mph56%30.04 "Hg10 mi
7:36 PM72 °FSunny.3 mph47%30.04 "Hg10 mi
7:16 PM72 °FSunny.5 mph47%30.04 "Hg10 mi
6:56 PM72 °FSunny.6 mph44%30.03 "Hg10 mi
6:36 PM73 °FSunny.7 mph44%30.04 "Hg10 mi
5:56 PM73 °FSunny.6 mph44%30.05 "Hg10 mi
5:36 PM73 °FSunny.7 mph47%30.05 "Hg10 mi
5:16 PM73 °FSunny.6 mph47%30.06 "Hg10 mi
4:56 PM73 °FSunny.6 mph47%30.06 "Hg10 mi
4:36 PM72 °FSunny.6 mph53%30.06 "Hg10 mi
4:16 PM72 °FSunny.6 mph57%30.07 "Hg10 mi
3:56 PM72 °FSunny.7 mph53%30.07 "Hg10 mi
3:36 PM72 °FSunny.9 mph47%30.07 "Hg10 mi
3:16 PM72 °FSunny.9 mph47%30.07 "Hg10 mi
2:56 PM72 °FSunny.9 mph44%30.07 "Hg10 mi
2:36 PM72 °FSunny.9 mph50%30.08 "Hg10 mi
1:56 PM72 °FSunny.8 mph50%30.09 "Hg10 mi
1:36 PM70 °FSunny.8 mph53%30.09 "Hg10 mi
11:56 AM66 °FSunny.5 mph68%30.11 "Hg10 mi
11:36 AM66 °FSunny.5 mph68%30.11 "Hg10 mi
11:16 AM66 °FSunny.5 mph68%30.11 "Hg10 mi
Weather by CustomWeather, © 2015

See weather overviewHow to use our weather pages